STARLINK-5280 (54166 NORAD) Tracking and Keplerian Element Data

This shows tracking and keplerian element data for the satellite.

Feedback or suggestion? Click here.




ElementValue
Catalog54166
NameSTARLINK-5280
Epoch Orbit378
Epoch Day324.91667824
Epoch Year2022
RAAN25.7684
Inclination53.2185
Eccentricity0.0002788
Argument of Perigee11.8755
Mean Anonmoly277.1323
Mean Motion15.73193103
Decay Rate-0.00050412
L11 54166U 22141K 22324.91667824 -.00050412 00000+0 -35693-3 0 9990
L22 54166 53.2185 25.7684 0002788 11.8755 277.1323 15.73193103 3788



Live tracking and technical data element details for STARLINK-5280 (NORAD 54166). STARLINK-5280 can be tracked NOW for your location showing map with azimuth and elevation plus other details from your city location.







IsCatalogInMostPopularTable: catalog: 54166, numindb: 4
Update: records affected: 1



GetName: 54166 STARLINK-5280

Hit Count: updated at: Mon, 28 Nov 2022 20:54:09 GMT